Year,Month,Day,Hour,Minute,Value (Times are PST for temperature in C)
2011,07,25,00,00,18.60
2011,07,25,00,01,18.60
2011,07,25,00,02,18.60
2011,07,25,00,03,18.50
2011,07,25,00,04,18.40
2011,07,25,00,05,18.40
2011,07,25,00,06,18.40
2011,07,25,00,07,18.30
2011,07,25,00,08,18.30
2011,07,25,00,09,18.20
2011,07,25,00,10,18.20
2011,07,25,00,11,18.20
2011,07,25,00,12,18.20
2011,07,25,00,13,18.10
2011,07,25,00,14,18.10
2011,07,25,00,15,18.10
2011,07,25,00,16,18.00
2011,07,25,00,17,18.00
2011,07,25,00,18,17.90
2011,07,25,00,19,17.90
2011,07,25,00,20,17.90
2011,07,25,00,21,17.80
2011,07,25,00,22,17.80
2011,07,25,00,23,17.80
2011,07,25,00,24,17.80
2011,07,25,00,25,17.80
2011,07,25,00,26,17.80
2011,07,25,00,27,17.80
2011,07,25,00,28,17.80
2011,07,25,00,29,17.80
2011,07,25,00,30,17.80
2011,07,25,00,31,17.90
2011,07,25,00,32,17.90
2011,07,25,00,33,17.90
2011,07,25,00,34,17.90
2011,07,25,00,35,17.90
2011,07,25,00,36,18.00
2011,07,25,00,37,18.00
2011,07,25,00,38,18.10
2011,07,25,00,39,18.10
2011,07,25,00,40,18.10
2011,07,25,00,41,18.10
2011,07,25,00,42,18.10
2011,07,25,00,43,18.10
2011,07,25,00,44,18.10
2011,07,25,00,45,18.10
2011,07,25,00,46,18.10
2011,07,25,00,47,18.10
2011,07,25,00,48,18.00
2011,07,25,00,49,18.00
2011,07,25,00,50,18.00
2011,07,25,00,51,17.90
2011,07,25,00,52,17.90
2011,07,25,00,53,17.90
2011,07,25,00,54,17.90
2011,07,25,00,55,17.90
2011,07,25,00,56,17.90
2011,07,25,00,57,17.90
2011,07,25,00,58,17.90
2011,07,25,00,59,17.90
2011,07,25,01,00,17.90
2011,07,25,01,01,17.90
2011,07,25,01,02,17.90
2011,07,25,01,03,17.90
2011,07,25,01,04,17.90
2011,07,25,01,05,17.90
2011,07,25,01,06,17.90
2011,07,25,01,07,17.90
2011,07,25,01,08,17.90
2011,07,25,01,09,17.90
2011,07,25,01,10,17.90
2011,07,25,01,11,17.90
2011,07,25,01,12,17.90
2011,07,25,01,13,17.90
2011,07,25,01,14,17.90
2011,07,25,01,15,17.80
2011,07,25,01,16,17.80
2011,07,25,01,17,17.80
2011,07,25,01,18,17.80
2011,07,25,01,19,17.80
2011,07,25,01,20,17.80
2011,07,25,01,21,17.80
2011,07,25,01,22,17.80
2011,07,25,01,23,17.80
2011,07,25,01,24,17.80
2011,07,25,01,25,17.80
2011,07,25,01,26,17.80
2011,07,25,01,27,17.80
2011,07,25,01,28,17.80
2011,07,25,01,29,17.80
2011,07,25,01,30,17.90
2011,07,25,01,31,17.90
2011,07,25,01,32,17.90
2011,07,25,01,33,17.90
2011,07,25,01,34,17.90
2011,07,25,01,35,17.90
2011,07,25,01,36,18.00
2011,07,25,01,37,18.00
2011,07,25,01,38,18.10
2011,07,25,01,39,18.10
2011,07,25,01,40,18.10
2011,07,25,01,41,18.10
2011,07,25,01,42,18.20
2011,07,25,01,43,18.30
2011,07,25,01,44,18.30
2011,07,25,01,45,18.40
2011,07,25,01,46,18.50
2011,07,25,01,47,18.50
2011,07,25,01,48,18.60
2011,07,25,01,49,18.70
2011,07,25,01,50,18.80
2011,07,25,01,51,18.90
2011,07,25,01,52,18.90
2011,07,25,01,53,19.00
2011,07,25,01,54,19.10
2011,07,25,01,55,19.10
2011,07,25,01,56,19.20
2011,07,25,01,57,19.20
2011,07,25,01,58,19.20
2011,07,25,01,59,19.20
2011,07,25,02,00,19.20
2011,07,25,02,01,19.20
2011,07,25,02,02,19.20
2011,07,25,02,03,19.20
2011,07,25,02,04,19.20
2011,07,25,02,05,19.20
2011,07,25,02,06,19.20
2011,07,25,02,07,19.20
2011,07,25,02,08,19.20
2011,07,25,02,09,19.10
2011,07,25,02,10,19.10
2011,07,25,02,11,19.00
2011,07,25,02,12,19.00
2011,07,25,02,13,18.90
2011,07,25,02,14,18.90
2011,07,25,02,15,18.80
2011,07,25,02,16,18.70
2011,07,25,02,17,18.60
2011,07,25,02,18,18.50
2011,07,25,02,19,18.40
2011,07,25,02,20,18.40
2011,07,25,02,21,18.30
2011,07,25,02,22,18.30
2011,07,25,02,23,18.20
2011,07,25,02,24,18.20
2011,07,25,02,25,18.10
2011,07,25,02,26,18.10
2011,07,25,02,27,18.10
2011,07,25,02,28,18.10
2011,07,25,02,29,18.10
2011,07,25,02,30,18.10
2011,07,25,02,31,18.10
2011,07,25,02,32,18.10
2011,07,25,02,33,18.10
2011,07,25,02,34,18.10
2011,07,25,02,35,18.00
2011,07,25,02,36,18.00
2011,07,25,02,37,17.90
2011,07,25,02,38,17.90
2011,07,25,02,39,17.90
2011,07,25,02,40,17.90
2011,07,25,02,41,17.80
2011,07,25,02,42,17.80
2011,07,25,02,43,17.80
2011,07,25,02,44,17.80
2011,07,25,02,45,17.70
2011,07,25,02,46,17.70
2011,07,25,02,47,17.70
2011,07,25,02,48,17.70
2011,07,25,02,49,17.70
2011,07,25,02,50,17.70
2011,07,25,02,51,17.60
2011,07,25,02,52,17.60
2011,07,25,02,53,17.70
2011,07,25,02,54,17.70
2011,07,25,02,55,17.60
2011,07,25,02,56,17.60
2011,07,25,02,57,17.60
2011,07,25,02,58,17.60
2011,07,25,02,59,17.60
2011,07,25,03,00,17.60
2011,07,25,03,01,17.50
2011,07,25,03,02,17.50
2011,07,25,03,03,17.50
2011,07,25,03,04,17.40
2011,07,25,03,05,17.40
2011,07,25,03,06,17.40
2011,07,25,03,07,17.30
2011,07,25,03,08,17.30
2011,07,25,03,09,17.30
2011,07,25,03,10,17.30
2011,07,25,03,11,17.20
2011,07,25,03,12,17.30
2011,07,25,03,13,17.30
2011,07,25,03,14,17.30
2011,07,25,03,15,17.30
2011,07,25,03,16,17.30
2011,07,25,03,17,17.30
2011,07,25,03,18,17.30
2011,07,25,03,19,17.30
2011,07,25,03,20,17.30
2011,07,25,03,21,17.30
2011,07,25,03,22,17.30
2011,07,25,03,23,17.30
2011,07,25,03,24,17.30
2011,07,25,03,25,17.40
2011,07,25,03,26,17.50
2011,07,25,03,27,17.50
2011,07,25,03,28,17.60
2011,07,25,03,29,17.70
2011,07,25,03,30,17.70
2011,07,25,03,31,17.80
2011,07,25,03,32,17.80
2011,07,25,03,33,17.80
2011,07,25,03,34,17.80
2011,07,25,03,35,17.80
2011,07,25,03,36,17.90
2011,07,25,03,37,17.90
2011,07,25,03,38,17.90
2011,07,25,03,39,17.90
2011,07,25,03,40,17.90
2011,07,25,03,41,17.90
2011,07,25,03,42,17.90
2011,07,25,03,43,17.90
2011,07,25,03,44,17.90
2011,07,25,03,45,17.80
2011,07,25,03,46,17.80
2011,07,25,03,47,17.80
2011,07,25,03,48,17.80
2011,07,25,03,49,17.70
2011,07,25,03,50,17.70
2011,07,25,03,51,17.60
2011,07,25,03,52,17.60
2011,07,25,03,53,17.50
2011,07,25,03,54,17.50
2011,07,25,03,55,17.40
2011,07,25,03,56,17.40
2011,07,25,03,57,17.30
2011,07,25,03,58,17.30
2011,07,25,03,59,17.30
2011,07,25,04,00,17.20
2011,07,25,04,01,17.20
2011,07,25,04,02,17.10
2011,07,25,04,03,17.10
2011,07,25,04,04,17.10
2011,07,25,04,05,17.00
2011,07,25,04,06,17.00
2011,07,25,04,07,17.00
2011,07,25,04,08,17.00
2011,07,25,04,09,17.10
2011,07,25,04,10,17.10
2011,07,25,04,11,17.10
2011,07,25,04,12,17.10
2011,07,25,04,13,17.10
2011,07,25,04,14,17.10
2011,07,25,04,15,17.10
2011,07,25,04,16,17.10
2011,07,25,04,17,17.10
2011,07,25,04,18,17.10
2011,07,25,04,19,17.10
2011,07,25,04,20,17.10
2011,07,25,04,21,17.10
2011,07,25,04,22,17.00
2011,07,25,04,23,17.00
2011,07,25,04,24,16.90
2011,07,25,04,25,16.90
2011,07,25,04,26,16.90
2011,07,25,04,27,16.80
2011,07,25,04,28,16.80
2011,07,25,04,29,16.80
2011,07,25,04,30,16.70
2011,07,25,04,31,16.70
2011,07,25,04,32,16.70
2011,07,25,04,33,16.60
2011,07,25,04,34,16.60
2011,07,25,04,35,16.60
2011,07,25,04,36,16.60
2011,07,25,04,37,16.50
2011,07,25,04,38,16.50
2011,07,25,04,39,16.40
2011,07,25,04,40,16.40
2011,07,25,04,41,16.40
2011,07,25,04,42,16.30
2011,07,25,04,43,16.30
2011,07,25,04,44,16.30
2011,07,25,04,45,16.20
2011,07,25,04,46,16.20
2011,07,25,04,47,16.20
2011,07,25,04,48,16.20
2011,07,25,04,49,16.10
2011,07,25,04,50,16.10
2011,07,25,04,51,16.10
2011,07,25,04,52,16.00
2011,07,25,04,53,16.00
2011,07,25,04,54,16.00
2011,07,25,04,55,15.90
2011,07,25,04,56,15.90
2011,07,25,04,57,15.90
2011,07,25,04,58,15.90
2011,07,25,04,59,15.80
2011,07,25,05,00,15.80
2011,07,25,05,01,15.80
2011,07,25,05,02,15.70
2011,07,25,05,03,15.70
2011,07,25,05,04,15.70
2011,07,25,05,05,15.70
2011,07,25,05,06,15.60
2011,07,25,05,07,15.60
2011,07,25,05,08,15.60
2011,07,25,05,09,15.60
2011,07,25,05,10,15.50
2011,07,25,05,11,15.50
2011,07,25,05,12,15.50
2011,07,25,05,13,15.40
2011,07,25,05,14,15.40
2011,07,25,05,15,15.40
2011,07,25,05,16,15.40
2011,07,25,05,17,15.30
2011,07,25,05,18,15.30
2011,07,25,05,19,15.30
2011,07,25,05,20,15.30
2011,07,25,05,21,15.30
2011,07,25,05,22,15.30
2011,07,25,05,23,15.30
2011,07,25,05,24,15.30
2011,07,25,05,25,15.30
2011,07,25,05,26,15.30
2011,07,25,05,27,15.30
2011,07,25,05,28,15.30
2011,07,25,05,29,15.30
2011,07,25,05,30,15.30
2011,07,25,05,31,15.30
2011,07,25,05,32,15.30
2011,07,25,05,33,15.30
2011,07,25,05,34,15.30
2011,07,25,05,35,15.30
2011,07,25,05,36,15.30
2011,07,25,05,37,15.30
2011,07,25,05,38,15.30
2011,07,25,05,39,15.30
2011,07,25,05,40,15.30
2011,07,25,05,41,15.30
2011,07,25,05,42,15.30
2011,07,25,05,43,15.20
2011,07,25,05,44,15.20
2011,07,25,05,45,15.20
2011,07,25,05,46,15.20
2011,07,25,05,47,15.20
2011,07,25,05,48,15.20
2011,07,25,05,49,15.20
2011,07,25,05,50,15.20
2011,07,25,05,51,15.20
2011,07,25,05,52,15.20
2011,07,25,05,53,15.20
2011,07,25,05,54,15.20
2011,07,25,05,55,15.20
2011,07,25,05,56,15.20
2011,07,25,05,57,15.20
2011,07,25,05,58,15.10
2011,07,25,05,59,15.10
2011,07,25,06,00,15.10
2011,07,25,06,01,15.10
2011,07,25,06,02,15.20
2011,07,25,06,03,15.20
2011,07,25,06,04,15.20
2011,07,25,06,05,15.20
2011,07,25,06,06,15.20
2011,07,25,06,07,15.30
2011,07,25,06,08,15.30
2011,07,25,06,09,15.30
2011,07,25,06,10,15.30
2011,07,25,06,11,15.30
2011,07,25,06,12,15.30
2011,07,25,06,13,15.40
2011,07,25,06,14,15.40
2011,07,25,06,15,15.40
2011,07,25,06,16,15.40
2011,07,25,06,17,15.40
2011,07,25,06,18,15.40
2011,07,25,06,19,15.50
2011,07,25,06,20,15.50
2011,07,25,06,21,15.50
2011,07,25,06,22,15.60
2011,07,25,06,23,15.60
2011,07,25,06,24,15.60
2011,07,25,06,25,15.60
2011,07,25,06,26,15.60
2011,07,25,06,27,15.70
2011,07,25,06,28,15.70
2011,07,25,06,29,15.70
2011,07,25,06,30,15.80
2011,07,25,06,31,15.80
2011,07,25,06,32,15.80
2011,07,25,06,33,15.90
2011,07,25,06,34,15.90
2011,07,25,06,35,15.90
2011,07,25,06,36,16.00
2011,07,25,06,37,16.10
2011,07,25,06,38,16.10
2011,07,25,06,39,16.10
2011,07,25,06,40,16.20
2011,07,25,06,41,16.20
2011,07,25,06,42,16.20
2011,07,25,06,43,16.30
2011,07,25,06,44,16.30
2011,07,25,06,45,16.30
2011,07,25,06,46,16.40
2011,07,25,06,47,16.40
2011,07,25,06,48,16.50
2011,07,25,06,49,16.50
2011,07,25,06,50,16.60
2011,07,25,06,51,16.60
2011,07,25,06,52,16.70
2011,07,25,06,53,16.70
2011,07,25,06,54,16.80
2011,07,25,06,55,16.90
2011,07,25,06,56,17.00
2011,07,25,06,57,17.10
2011,07,25,06,58,17.20
2011,07,25,06,59,17.20
2011,07,25,07,00,17.30
2011,07,25,07,01,17.40
2011,07,25,07,02,17.50
2011,07,25,07,03,17.60
2011,07,25,07,04,17.70
2011,07,25,07,05,17.80
2011,07,25,07,06,17.80
2011,07,25,07,07,17.90
2011,07,25,07,08,18.00
2011,07,25,07,09,18.10
2011,07,25,07,10,18.10
2011,07,25,07,11,18.20
2011,07,25,07,12,18.20
2011,07,25,07,13,18.30
2011,07,25,07,14,18.40
2011,07,25,07,15,18.40
2011,07,25,07,16,18.50
2011,07,25,07,17,18.50
2011,07,25,07,18,18.60
2011,07,25,07,19,18.60
2011,07,25,07,20,18.70
2011,07,25,07,21,18.70
2011,07,25,07,22,18.70
2011,07,25,07,23,18.80
2011,07,25,07,24,18.80
2011,07,25,07,25,18.90
2011,07,25,07,26,18.90
2011,07,25,07,27,18.90
2011,07,25,07,28,19.00
2011,07,25,07,29,19.00
2011,07,25,07,30,19.10
2011,07,25,07,31,19.10
2011,07,25,07,32,19.20
2011,07,25,07,33,19.20
2011,07,25,07,34,19.30
2011,07,25,07,35,19.30
2011,07,25,07,36,19.30
2011,07,25,07,37,19.30
2011,07,25,07,38,19.30
2011,07,25,07,39,19.30
2011,07,25,07,40,19.40
2011,07,25,07,41,19.40
2011,07,25,07,42,19.50
2011,07,25,07,43,19.50
2011,07,25,07,44,19.60
2011,07,25,07,45,19.60
2011,07,25,07,46,19.60
2011,07,25,07,47,19.60
2011,07,25,07,48,19.70
2011,07,25,07,49,19.70
2011,07,25,07,50,19.70
2011,07,25,07,51,19.80
2011,07,25,07,52,19.80
2011,07,25,07,53,19.80
2011,07,25,07,54,19.80
2011,07,25,07,55,19.80
2011,07,25,07,56,19.80
2011,07,25,07,57,19.80
2011,07,25,07,58,19.80
2011,07,25,07,59,19.80
2011,07,25,08,00,19.80
2011,07,25,08,01,19.80
2011,07,25,08,02,19.90
2011,07,25,08,03,19.90
2011,07,25,08,04,19.90
2011,07,25,08,05,20.00
2011,07,25,08,06,20.00
2011,07,25,08,07,20.00
2011,07,25,08,08,20.10
2011,07,25,08,09,20.10
2011,07,25,08,10,20.10
2011,07,25,08,11,20.20
2011,07,25,08,12,20.20
2011,07,25,08,13,20.30
2011,07,25,08,14,20.40
2011,07,25,08,15,20.50
2011,07,25,08,16,20.50
2011,07,25,08,17,20.60
2011,07,25,08,18,20.60
2011,07,25,08,19,20.60
2011,07,25,08,20,20.60
2011,07,25,08,21,20.60
2011,07,25,08,22,20.60
2011,07,25,08,23,20.60
2011,07,25,08,24,20.60
2011,07,25,08,25,20.60
2011,07,25,08,26,20.60
2011,07,25,08,27,20.60
2011,07,25,08,28,20.60
2011,07,25,08,29,20.60
2011,07,25,08,30,20.50
2011,07,25,08,31,20.50
2011,07,25,08,32,20.50
2011,07,25,08,33,20.40
2011,07,25,08,34,20.40
2011,07,25,08,35,20.30
2011,07,25,08,36,20.20
2011,07,25,08,37,20.10
2011,07,25,08,38,20.10
2011,07,25,08,39,20.00
2011,07,25,08,40,20.00
2011,07,25,08,41,19.90
2011,07,25,08,42,19.90
2011,07,25,08,43,19.90
2011,07,25,08,44,19.80
2011,07,25,08,45,19.90
2011,07,25,08,46,19.80
2011,07,25,08,47,19.80
2011,07,25,08,48,19.80
2011,07,25,08,49,19.80
2011,07,25,08,50,19.80
2011,07,25,08,51,19.80
2011,07,25,08,52,19.80
2011,07,25,08,53,19.80
2011,07,25,08,54,19.80
2011,07,25,08,55,19.80
2011,07,25,08,56,19.80
2011,07,25,08,57,19.80
2011,07,25,08,58,19.80
2011,07,25,08,59,19.80
2011,07,25,09,00,19.80
2011,07,25,09,01,19.80
2011,07,25,09,02,19.80
2011,07,25,09,03,19.80
2011,07,25,09,04,19.80
2011,07,25,09,05,19.80
2011,07,25,09,06,19.80
2011,07,25,09,07,19.80
2011,07,25,09,08,19.80
2011,07,25,09,09,19.70
2011,07,25,09,10,19.70
2011,07,25,09,11,19.70
2011,07,25,09,12,19.70
2011,07,25,09,13,19.70
2011,07,25,09,14,19.70
2011,07,25,09,15,19.60
2011,07,25,09,16,19.70
2011,07,25,09,17,19.70
2011,07,25,09,18,19.70
2011,07,25,09,19,19.70
2011,07,25,09,20,19.70
2011,07,25,09,21,19.70
2011,07,25,09,22,19.70
2011,07,25,09,23,19.70
2011,07,25,09,24,19.70
2011,07,25,09,25,19.70
2011,07,25,09,26,19.70
2011,07,25,09,27,19.80
2011,07,25,09,28,19.70
2011,07,25,09,29,19.70
2011,07,25,09,30,19.70
2011,07,25,09,31,19.70
2011,07,25,09,32,19.70
2011,07,25,09,33,19.80
2011,07,25,09,34,19.80
2011,07,25,09,35,19.80
2011,07,25,09,36,19.80
2011,07,25,09,37,19.80
2011,07,25,09,38,19.80
2011,07,25,09,39,19.80
2011,07,25,09,40,19.80
2011,07,25,09,41,19.80
2011,07,25,09,42,19.80
2011,07,25,09,43,19.80
2011,07,25,09,44,19.80
2011,07,25,09,45,19.80
2011,07,25,09,46,19.80
2011,07,25,09,47,19.80
2011,07,25,09,48,19.80
2011,07,25,09,49,19.80
2011,07,25,09,50,19.80
2011,07,25,09,51,19.70
2011,07,25,09,52,19.70
2011,07,25,09,53,19.80
2011,07,25,09,54,19.80
2011,07,25,09,55,19.80
2011,07,25,09,56,19.80
2011,07,25,09,57,19.80
2011,07,25,09,58,19.80
2011,07,25,09,59,19.70
2011,07,25,10,00,19.70
2011,07,25,10,01,19.70
2011,07,25,10,02,19.70
2011,07,25,10,03,19.60
2011,07,25,10,04,19.60
2011,07,25,10,05,19.50
2011,07,25,10,06,19.40
2011,07,25,10,07,19.40
2011,07,25,10,08,19.40
2011,07,25,10,09,19.40
2011,07,25,10,10,19.40
2011,07,25,10,11,19.40
2011,07,25,10,12,19.40
2011,07,25,10,13,19.40
2011,07,25,10,14,19.50
2011,07,25,10,15,19.50
2011,07,25,10,16,19.40
2011,07,25,10,17,19.40
2011,07,25,10,18,19.50
2011,07,25,10,19,19.50
2011,07,25,10,20,19.60
2011,07,25,10,21,19.60
2011,07,25,10,22,19.60
2011,07,25,10,23,19.60
2011,07,25,10,24,19.50
2011,07,25,10,25,19.50
2011,07,25,10,26,19.50
2011,07,25,10,27,19.50
2011,07,25,10,28,19.60
2011,07,25,10,29,19.60
2011,07,25,10,30,19.70
2011,07,25,10,31,19.70
2011,07,25,10,32,19.70
2011,07,25,10,33,19.70
2011,07,25,10,34,19.60
2011,07,25,10,35,19.60
2011,07,25,10,36,19.60
2011,07,25,10,37,19.50
2011,07,25,10,38,19.50
2011,07,25,10,39,19.50
2011,07,25,10,40,19.50
2011,07,25,10,41,19.50
2011,07,25,10,42,19.50
2011,07,25,10,43,19.50
2011,07,25,10,44,19.60
2011,07,25,10,45,19.70
2011,07,25,10,46,19.70
2011,07,25,10,47,19.70
2011,07,25,10,48,19.70
2011,07,25,10,49,19.60
2011,07,25,10,50,19.60
2011,07,25,10,51,19.60
2011,07,25,10,52,19.60
2011,07,25,10,53,19.60
2011,07,25,10,54,19.60
2011,07,25,10,55,19.70
2011,07,25,10,56,19.70
2011,07,25,10,57,19.80
2011,07,25,10,58,19.90
2011,07,25,10,59,20.00
2011,07,25,11,00,20.00
2011,07,25,11,01,20.00
2011,07,25,11,02,20.00
2011,07,25,11,03,19.90
2011,07,25,11,04,19.90
2011,07,25,11,05,19.90
2011,07,25,11,06,19.90
2011,07,25,11,07,19.90
2011,07,25,11,08,19.90
2011,07,25,11,09,20.00
2011,07,25,11,10,20.00
2011,07,25,11,11,20.10
2011,07,25,11,12,20.10
2011,07,25,11,13,20.00
2011,07,25,11,14,19.90
2011,07,25,11,15,19.80
2011,07,25,11,16,19.70
2011,07,25,11,17,19.60
2011,07,25,11,18,19.60
2011,07,25,11,19,19.50
2011,07,25,11,20,19.60
2011,07,25,11,21,19.60
2011,07,25,11,22,19.70
2011,07,25,11,23,19.80
2011,07,25,11,24,19.90
2011,07,25,11,25,19.90
2011,07,25,11,26,19.90
2011,07,25,11,27,19.90
2011,07,25,11,28,19.80
2011,07,25,11,29,19.80
2011,07,25,11,30,19.70
2011,07,25,11,31,19.70
2011,07,25,11,32,19.70
2011,07,25,11,33,19.70
2011,07,25,11,34,19.70
2011,07,25,11,35,19.80
2011,07,25,11,36,19.90
2011,07,25,11,37,19.90
2011,07,25,11,38,20.00
2011,07,25,11,39,20.00
2011,07,25,11,40,20.00
2011,07,25,11,41,20.00
2011,07,25,11,42,19.90
2011,07,25,11,43,19.90
2011,07,25,11,44,19.90
2011,07,25,11,45,19.90
2011,07,25,11,46,19.90
2011,07,25,11,47,19.90
2011,07,25,11,48,20.00
2011,07,25,11,49,20.00
2011,07,25,11,50,19.90
2011,07,25,11,51,19.90
2011,07,25,11,52,19.80
2011,07,25,11,53,19.80
2011,07,25,11,54,19.80
2011,07,25,11,55,19.80
2011,07,25,11,56,19.80
2011,07,25,11,57,19.90
2011,07,25,11,58,19.90
2011,07,25,11,59,19.90
2011,07,25,12,00,20.00
2011,07,25,12,01,20.00
2011,07,25,12,02,20.00
2011,07,25,12,03,20.10
2011,07,25,12,04,20.00
2011,07,25,12,05,20.00
2011,07,25,12,06,19.90
2011,07,25,12,07,19.80
2011,07,25,12,08,19.80
2011,07,25,12,09,19.70
2011,07,25,12,10,19.60
2011,07,25,12,11,19.60
2011,07,25,12,12,19.60
2011,07,25,12,13,19.60
2011,07,25,12,14,19.60
2011,07,25,12,15,19.60
2011,07,25,12,16,19.60
2011,07,25,12,17,19.60
2011,07,25,12,18,19.60
2011,07,25,12,19,19.70
2011,07,25,12,20,19.70
2011,07,25,12,21,19.80
2011,07,25,12,22,19.80
2011,07,25,12,23,19.80
2011,07,25,12,24,19.80
2011,07,25,12,25,19.80
2011,07,25,12,26,19.80
2011,07,25,12,27,19.80
2011,07,25,12,28,19.90
2011,07,25,12,29,20.00
2011,07,25,12,30,20.10
2011,07,25,12,31,20.20
2011,07,25,12,32,20.30
2011,07,25,12,33,20.30
2011,07,25,12,34,20.30
2011,07,25,12,35,20.40
2011,07,25,12,36,20.40
2011,07,25,12,37,20.40
2011,07,25,12,38,20.40
2011,07,25,12,39,20.40
2011,07,25,12,40,20.40
2011,07,25,12,41,20.50
2011,07,25,12,42,20.60
2011,07,25,12,43,20.60
2011,07,25,12,44,20.70
2011,07,25,12,45,20.70
2011,07,25,12,46,20.70
2011,07,25,12,47,20.60
2011,07,25,12,48,20.60
2011,07,25,12,49,20.60
2011,07,25,12,50,20.60
2011,07,25,12,51,20.60
2011,07,25,12,52,20.70
2011,07,25,12,53,20.80
2011,07,25,12,54,20.80
2011,07,25,12,55,20.80
2011,07,25,12,56,20.80
2011,07,25,12,57,20.80
2011,07,25,12,58,20.90
2011,07,25,12,59,20.90
2011,07,25,13,00,20.90
2011,07,25,13,01,20.90
2011,07,25,13,02,21.00
2011,07,25,13,03,21.10
2011,07,25,13,04,21.20
2011,07,25,13,05,21.30
2011,07,25,13,06,21.30
2011,07,25,13,07,21.40
2011,07,25,13,08,21.50
2011,07,25,13,09,21.60
2011,07,25,13,10,21.60
2011,07,25,13,11,21.60
2011,07,25,13,12,21.60
2011,07,25,13,13,21.70
2011,07,25,13,14,21.70
2011,07,25,13,15,21.80
2011,07,25,13,16,21.90
2011,07,25,13,17,22.00
2011,07,25,13,18,22.10
2011,07,25,13,19,22.10
2011,07,25,13,20,22.20
2011,07,25,13,21,22.30
2011,07,25,13,22,22.30
2011,07,25,13,23,22.30
2011,07,25,13,24,22.40
2011,07,25,13,25,22.40
2011,07,25,13,26,22.40
2011,07,25,13,27,22.50
2011,07,25,13,28,22.60
2011,07,25,13,29,22.60
2011,07,25,13,30,22.70
2011,07,25,13,31,22.70
2011,07,25,13,32,22.70
2011,07,25,13,33,22.70
2011,07,25,13,34,22.70
2011,07,25,13,35,22.60
2011,07,25,13,36,22.60
2011,07,25,13,37,22.50
2011,07,25,13,38,22.40
2011,07,25,13,39,22.30
2011,07,25,13,40,22.30
2011,07,25,13,41,22.20
2011,07,25,13,42,22.20
2011,07,25,13,43,22.20
2011,07,25,13,44,22.20
2011,07,25,13,45,22.20
2011,07,25,13,46,22.20
2011,07,25,13,47,22.20
2011,07,25,13,48,22.10
2011,07,25,13,49,22.10
2011,07,25,13,50,22.00
2011,07,25,13,51,22.00
2011,07,25,13,52,21.90
2011,07,25,13,53,21.90
2011,07,25,13,54,22.00
2011,07,25,13,55,22.10
2011,07,25,13,56,22.20
2011,07,25,13,57,22.40
2011,07,25,13,58,22.40
2011,07,25,13,59,22.50
2011,07,25,14,00,22.50
2011,07,25,14,01,22.50
2011,07,25,14,02,22.40
2011,07,25,14,03,22.40
2011,07,25,14,04,22.50
2011,07,25,14,05,22.50
2011,07,25,14,06,22.60
2011,07,25,14,07,22.60
2011,07,25,14,08,22.60
2011,07,25,14,09,22.60
2011,07,25,14,10,22.50
2011,07,25,14,11,22.50
2011,07,25,14,12,22.60
2011,07,25,14,13,22.60
2011,07,25,14,14,22.70
2011,07,25,14,15,22.80
2011,07,25,14,16,23.00
2011,07,25,14,17,23.00
2011,07,25,14,18,23.10
2011,07,25,14,19,23.10
2011,07,25,14,20,23.30
2011,07,25,14,21,23.30
2011,07,25,14,22,23.40
2011,07,25,14,23,23.40
2011,07,25,14,24,23.40
2011,07,25,14,25,23.30
2011,07,25,14,26,23.20
2011,07,25,14,27,23.20
2011,07,25,14,28,23.20
2011,07,25,14,29,23.20
2011,07,25,14,30,23.10
2011,07,25,14,31,23.10
2011,07,25,14,32,23.00
2011,07,25,14,33,22.90
2011,07,25,14,34,23.00
2011,07,25,14,35,23.00
2011,07,25,14,36,23.00
2011,07,25,14,37,23.10
2011,07,25,14,38,23.10
2011,07,25,14,39,23.10
2011,07,25,14,40,23.10
2011,07,25,14,41,23.00
2011,07,25,14,42,23.00
2011,07,25,14,43,22.90
2011,07,25,14,44,22.80
2011,07,25,14,45,22.80
2011,07,25,14,46,22.80
2011,07,25,14,47,22.80
2011,07,25,14,48,22.80
2011,07,25,14,49,22.70
2011,07,25,14,50,22.80
2011,07,25,14,51,22.80
2011,07,25,14,52,22.70
2011,07,25,14,53,22.60
2011,07,25,14,54,22.50
2011,07,25,14,55,22.40
2011,07,25,14,56,22.40
2011,07,25,14,57,22.40
2011,07,25,14,58,22.40
2011,07,25,14,59,22.50
2011,07,25,15,00,22.50
2011,07,25,15,01,22.40
2011,07,25,15,02,22.30
2011,07,25,15,03,22.20
2011,07,25,15,04,22.20
2011,07,25,15,05,22.10
2011,07,25,15,06,22.10
2011,07,25,15,07,21.90
2011,07,25,15,08,21.80
2011,07,25,15,09,21.80
2011,07,25,15,10,21.80
2011,07,25,15,11,21.70
2011,07,25,15,12,21.70
2011,07,25,15,13,21.60
2011,07,25,15,14,21.60
2011,07,25,15,15,21.60
2011,07,25,15,16,21.70
2011,07,25,15,17,21.70
2011,07,25,15,18,21.80
2011,07,25,15,19,21.90
2011,07,25,15,20,22.10
2011,07,25,15,21,22.30
2011,07,25,15,22,22.40
2011,07,25,15,23,22.50
2011,07,25,15,24,22.40
2011,07,25,15,25,22.30
2011,07,25,15,26,22.30
2011,07,25,15,27,22.30
2011,07,25,15,28,22.20
2011,07,25,15,29,22.10
2011,07,25,15,30,22.00
2011,07,25,15,31,21.90
2011,07,25,15,32,21.80
2011,07,25,15,33,21.80
2011,07,25,15,34,21.70
2011,07,25,15,35,21.60
2011,07,25,15,36,21.60
2011,07,25,15,37,21.60
2011,07,25,15,38,21.60
2011,07,25,15,39,21.60
2011,07,25,15,40,21.70
2011,07,25,15,41,21.70
2011,07,25,15,42,21.70
2011,07,25,15,43,21.80
2011,07,25,15,44,21.80
2011,07,25,15,45,21.80
2011,07,25,15,46,21.80
2011,07,25,15,47,21.90
2011,07,25,15,48,21.90
2011,07,25,15,49,22.00
2011,07,25,15,50,22.00
2011,07,25,15,51,22.10
2011,07,25,15,52,22.10
2011,07,25,15,53,22.10
2011,07,25,15,54,22.10
2011,07,25,15,55,22.20
2011,07,25,15,56,22.30
2011,07,25,15,57,22.40
2011,07,25,15,58,22.50
2011,07,25,15,59,22.60
2011,07,25,16,00,22.70
2011,07,25,16,01,22.80
2011,07,25,16,02,22.80
2011,07,25,16,03,22.80
2011,07,25,16,04,22.80
2011,07,25,16,05,22.80
2011,07,25,16,06,22.80
2011,07,25,16,07,22.80
2011,07,25,16,08,22.70
2011,07,25,16,09,22.60
2011,07,25,16,10,22.60
2011,07,25,16,11,22.60
2011,07,25,16,12,22.60
2011,07,25,16,13,22.50
2011,07,25,16,14,22.50
2011,07,25,16,15,22.50
2011,07,25,16,16,22.50
2011,07,25,16,17,22.50
2011,07,25,16,18,22.50
2011,07,25,16,19,22.50
2011,07,25,16,20,22.50
2011,07,25,16,21,22.50
2011,07,25,16,22,22.60
2011,07,25,16,23,22.60
2011,07,25,16,24,22.60
2011,07,25,16,25,22.50
2011,07,25,16,26,22.40
2011,07,25,16,27,22.40
2011,07,25,16,28,22.30
2011,07,25,16,29,22.20
2011,07,25,16,30,22.00
2011,07,25,16,31,22.00
2011,07,25,16,32,22.00
2011,07,25,16,33,22.10
2011,07,25,16,34,22.10
2011,07,25,16,35,22.10
2011,07,25,16,36,22.20
2011,07,25,16,37,22.20
2011,07,25,16,38,22.10
2011,07,25,16,39,22.10
2011,07,25,16,40,22.10
2011,07,25,16,41,22.10
2011,07,25,16,42,22.00
2011,07,25,16,43,21.90
2011,07,25,16,44,21.90
2011,07,25,16,45,21.90
2011,07,25,16,46,21.90
2011,07,25,16,47,21.80
2011,07,25,16,48,21.60
2011,07,25,16,49,21.50
2011,07,25,16,50,21.30
2011,07,25,16,51,21.20
2011,07,25,16,52,21.10
2011,07,25,16,53,21.00
2011,07,25,16,54,21.00
2011,07,25,16,55,20.90
2011,07,25,16,56,20.80
2011,07,25,16,57,20.80
2011,07,25,16,58,20.80
2011,07,25,16,59,20.70
2011,07,25,17,00,20.70
2011,07,25,17,01,20.80
2011,07,25,17,02,20.80
2011,07,25,17,03,20.70
2011,07,25,17,04,20.60
2011,07,25,17,05,20.50
2011,07,25,17,06,20.50
2011,07,25,17,07,20.40
2011,07,25,17,08,20.40
2011,07,25,17,09,20.40
2011,07,25,17,10,20.40
2011,07,25,17,11,20.30
2011,07,25,17,12,20.20
2011,07,25,17,13,20.20
2011,07,25,17,14,20.10
2011,07,25,17,15,20.10
2011,07,25,17,16,20.20
2011,07,25,17,17,20.20
2011,07,25,17,18,20.20
2011,07,25,17,19,20.20